Buffalo, SD

2:50 AM MDT on July 25, 2017 (GMT -0600)
Buffalo

Weather History for K2WX - November, 2013

Change the Weather History Date:

Wednesday, November 13, 2013

  Actual Average Record
Temperature  
Mean Temperature 46 °F 33 °F  
Max Temperature 60 °F 44 °F 64 °F (2001)
Min Temperature 31 °F 23 °F -5 °F (2014)
Degree Days  
Heating Degree Days 19 32  
Month to date heating degree days 384 374  
Since 1 July heating degree days 1214 1275  
Cooling Degree Days 0 0  
Month to date cooling degree days 0 0  
Year to date cooling degree days 587 513  
Moisture  
Dew Point 31 °F    
Average Humidity 59    
Maximum Humidity 79    
Minimum Humidity 39    
Precipitation  
Precipitation 0.00 in 0.01 in 0.11 in (2008)
Month to date precipitation 0.00 0.27  
Year to date precipitation 12.15 14.19  
Sea Level Pressure  
Sea Level Pressure 30.01 in    
Wind  
Wind Speed 8 mph (WNW)    
Max Wind Speed 17 mph    
Max Gust Speed 21 mph    
T = Trace of Precipitation, MM = Missing Value Source: NWS Daily Summary

Daily Weather History Graph

Daily Weather History Graph

Search for Another Location

Airport or City:

Trip Planner

Search our weather history database for the weather conditions in past years. The results will help you decide how hot, cold, wet, or windy it might be!

Date:

Astronomy

Nov. 13, 2013 Rise Set
Actual Time 6:50 AM MST 4:25 PM MST
Civil Twilight 6:18 AM MST 4:57 PM MST
Nautical Twilight 5:43 AM MST 5:33 PM MST
Astronomical Twilight 5:08 AM MST 6:08 PM MST
Moon 2:23 PM MST (11/13) 2:35 AM MST (11/13)
Length of Visible Light 10h 38m
Length of Day
9h 34m
Waxing Gibbous, 85% of the Moon is Illuminated
Nov 13
Waxing Gibbous
Nov 17
Full
Nov 25
Last Quarter
Dec 2
New
Dec 9
First Quarter

Hourly Weather History & Observations

Time (MST) Temp. Windchill Dew Point Humidity Pressure Visibility Wind Dir Wind Speed Gust Speed Precip Events Conditions
12:56 AM 36.0 °F 32.1 °F 27.0 °F 70% 30.10 in - West 4.6 mph - N/A   Unknown
1:56 AM 30.9 °F 25.2 °F 25.0 °F 79% 30.09 in - West 5.8 mph - N/A   Unknown
2:56 AM 39.0 °F 34.0 °F 27.0 °F 62% 30.05 in - West 6.9 mph - N/A   Unknown
3:56 AM 41.0 °F 34.7 °F 28.0 °F 60% 30.06 in - West 10.4 mph - N/A   Unknown
4:56 AM 41.0 °F 37.1 °F 28.0 °F 60% 30.06 in - West 5.8 mph - N/A   Unknown
5:56 AM 41.0 °F 36.4 °F 28.0 °F 60% 30.06 in - West 6.9 mph - N/A   Unknown
6:56 AM 37.9 °F 32.1 °F 27.0 °F 65% 30.08 in - West 8.1 mph - N/A   Unknown
7:56 AM 41.0 °F 35.2 °F 30.0 °F 65% 30.08 in - WNW 9.2 mph - N/A   Unknown
8:56 AM 44.1 °F 39.5 °F 32.0 °F 63% 30.08 in - West 8.1 mph - N/A   Unknown
9:56 AM 48.0 °F - 33.1 °F 56% 30.06 in - WNW 8.1 mph - N/A   Unknown
10:56 AM 54.0 °F - 32.0 °F 43% 30.04 in - NW 6.9 mph - N/A   Unknown
11:56 AM 57.9 °F - 32.0 °F 37% 29.99 in - West 11.5 mph - N/A   Unknown
12:56 PM 57.9 °F - 33.1 °F 39% 29.97 in - NW 11.5 mph - N/A   Unknown
1:56 PM 55.9 °F - 36.0 °F 47% 29.98 in - NW 12.7 mph - N/A   Unknown
2:56 PM 55.0 °F - 35.1 °F 47% 29.96 in - NW 4.6 mph - N/A   Unknown
3:56 PM 54.0 °F - 35.1 °F 49% 29.94 in - NW 3.5 mph - N/A   Unknown
4:56 PM 51.1 °F - 34.0 °F 52% 29.96 in - NW 3.5 mph - N/A   Unknown
5:56 PM 46.0 °F 43.1 °F 34.0 °F 63% 29.98 in - West 5.8 mph - N/A   Unknown
6:56 PM 45.0 °F 41.2 °F 34.0 °F 65% 29.97 in - WNW 6.9 mph - N/A   Unknown
7:56 PM 39.9 °F 34.5 °F 34.0 °F 79% 29.99 in - West 8.1 mph - N/A   Unknown
8:56 PM 39.0 °F 34.0 °F 33.1 °F 79% 29.97 in - West 6.9 mph - N/A   Unknown
9:56 PM 42.1 °F 34.2 °F 33.1 °F 70% 29.96 in - WNW 16.1 mph - N/A   Unknown
10:56 PM 39.0 °F 32.3 °F 32.0 °F 76% 29.96 in - WNW 10.4 mph - N/A   Unknown
11:56 PM 39.9 °F 32.1 °F 30.0 °F 68% 29.94 in - WNW 13.8 mph - N/A   Unknown